sat.trackr.live / text

‹ back to catalog

STARLINK-1273

NORAD 45367 · 2020-019H

PAYLOAD ACTIVE UNKNOWN

§ Identity

Operator
Country
US
Launch date
2020-03-18
Launch site
AFETR
Launch vehicle
Mass (kg)
RCS (m²)

Purposes: comms

External: N2YO · Heavens-Above · Gunter

§ Orbital elements

Epoch: 2026-05-24T11:56:39.532992Z

Period
92.61 min
Inclination
53.0442°
Eccentricity
0.0006459
Mean motion
15.54974950 rev/d
Perigee alt
397.8 km
Apogee alt
406.6 km
Semi-major
6,780.4 km
B*
8.4426e-4
RAAN
151.1058°
Arg perigee
8.4981°
Mean anomaly
351.6138°
Rev number
34,165

§ Raw data

STARLINK-12731 45367U 20019H   26144.49767978  .00057550  00000+0  84426-3 0  99992 45367  53.0442 151.1058 0006459   8.4981 351.6138 15.54974950341655

JSON: /api/v1/satellites/45367 · /tle

For live sub-satellite position, see the globe view (requires WebGL).

§ Visibility from observer

Set your observer location to see the next 7 days of passes ≥ 10°. The values pass through the URL so the page stays shareable.

No JS? Fill the form by hand. The geolocation button needs JavaScript.